Hourly Data Report for September 24, 2017

All times are specified in Local Standard Time (LST). Add 1 hour to adjust for Daylight Saving Time where and when it is observed.

IQALUIT CLIMATE
NUNAVUT

63°44'50.000" N
68°32'40.000" W
33.50 m
2402592
71321
XFB

Download Data

Hourly Data (September 2017)
Hourly Data Report for September 24, 2017
Temp Definition
°C
Dew Point Temp Definition
°C
Rel Hum Definition
%
Wind Dir Definition
10's deg

Wind Spd Definition
km/h
Visibility Definition
km
Stn Press Definition
kPa
Hmdx Definition


Wind Chill Definition


Weather Definition


TIME
00:00 0.8 -3.3 74 33 20   100.92     LegendNANA
01:00 0.5 -3.2 76 33 17   100.89     LegendNANA
02:00 0.0 -1.9 88 32 13   100.89   -4 LegendNANA
03:00 -0.5 -2.6 86 31 28   100.88   -7 LegendNANA
04:00 -0.6 -2.7 86 32 14   100.89   -5 LegendNANA
05:00 -0.8 -2.2 91 30 17   100.89   -6 LegendNANA
06:00 -0.8 -2.8 87 34 16   100.87   -6 LegendNANA
07:00 -1.0 -2.7 89 34 20   100.85   -7 LegendNANA
08:00 0.3 -3.2 77 32 20   100.80     LegendNANA
09:00 0.0 -2.9 81 32 21   100.75   -5 LegendNANA
10:00 0.2 -2.4 83 33 23   100.69     LegendNANA
11:00 0.4 -2.6 80 33 23   100.66     LegendNANA
12:00 0.0 -2.1 86 33 29   100.63   -6 LegendNANA
13:00 0.9 -2.7 77 32 24   100.62     LegendNANA
14:00 0.9 -3.2 74 33 24   100.61     LegendNANA
15:00 1.2 -2.1 79 32 25   100.64     LegendNANA
16:00 0.7 -2.7 78 34 17   100.68     LegendNANA
17:00 0.2 -3.0 79 31 23   100.70     LegendNANA
18:00 -0.7 -3.6 81 32 28   100.76   -7 LegendNANA
19:00 -0.9 -3.7 82 30 27   100.81   -7 LegendNANA
20:00 -1.3 -3.7 84 31 20   100.82   -7 LegendNANA
21:00 -1.4 -3.7 84 31 23   100.83   -7 LegendNANA
22:00 -1.8 -4.1 84 31 21   100.83   -8 LegendNANA
23:00 -2.2 -4.3 85 31 17   100.85   -8 LegendNANA

Notes on Data Quality.

Legend

  • E = Estimated
  • M = Missing
  • NA = Not Available
  • ‡ = Partner data that is not subject to review by the National Climate Archives
Date modified: